{"data":{"norad_id":54005,"epoch":"2026-05-24T23:30:29.981952Z","epoch_age_seconds":79837,"freshness":"FRESH","line1":"1 54005U 22125AT  26144.97951368 -.00000074  00000+0  13432-4 0  9999","line2":"2 54005  53.2164 231.3606 0001229  91.8015 268.3118 15.08837619200982","mean_motion":15.08837619,"eccentricity":0.0001229,"inclination_deg":53.2164,"raan_deg":231.3606,"arg_perigee_deg":91.8015,"mean_anomaly_deg":268.3118,"bstar":1.3432e-5,"rev_number":20098,"period_min":95.437705281658,"perigee_km":538.9004583439,"apogee_km":540.60087513238,"semimajor_km":6917.8876667381,"source":"CELESTRAK","updated_at":"2026-05-25T13:38:17.624937Z"}}